• în România
  • Lista ţărilor
  • Pe 7 zile
  • Temperatura apei
  • Hartă satelitară
  • Meteo pe hartă
  • Widget-uri
  • user-avatar
    Intrare

    Meteo pe oră la Mayrhofen

    Astăzi, 30 Aprilie, Duminică

    Timp Temperatura Precipitaţii Vânt Presiune Umiditate
    00:00 -4°C° 0 mm 1 m/s 613 mmHg 96%
    01:00 -4°C° 0 mm 1 m/s 613 mmHg 96%
    02:00 -4°C° 0 mm 1 m/s 613 mmHg 96%
    03:00 -4°C° 0 mm 1 m/s 613 mmHg 96%
    04:00 -5°C° 0 mm 2 m/s 613 mmHg 96%
    05:00 -4°C° 0 mm 2 m/s 613 mmHg 93%
    06:00 -3°C° 0 mm 2 m/s 614 mmHg 91%
    07:00 +1°C° 0 mm 1 m/s 614 mmHg 89%
    08:00 +2°C° 0 mm 2 m/s 615 mmHg 85%
    09:00 +3°C° 0 mm 2 m/s 615 mmHg 82%
    10:00 +5°C° 0 mm 2 m/s 615 mmHg 78%
    11:00 +6°C° 0 mm 2 m/s 615 mmHg 75%
    12:00 +7°C° 0 mm 2 m/s 615 mmHg 72%
    13:00 +8°C° 0 mm 2 m/s 615 mmHg 69%
    14:00 +8°C° 0 mm 2 m/s 614 mmHg 69%
    15:00 +8°C° 0 mm 2 m/s 614 mmHg 69%
    16:00 +8°C° 0 mm 2 m/s 614 mmHg 69%
    17:00 +6°C° 0 mm 2 m/s 613 mmHg 76%
    18:00 +4°C° 0 mm 2 m/s 612 mmHg 84%
    19:00 +2°C° 0 mm 2 m/s 611 mmHg 91%
    20:00 +1°C° 0 mm 2 m/s 611 mmHg 93%
    21:00 -1°C° 0 mm 2 m/s 612 mmHg 94%
    22:00 -1°C° 0 mm 3 m/s 612 mmHg 95%
    23:00 -1°C° 0 mm 3 m/s 611 mmHg 95%

    Mâine, 1 Mai, Luni

    Timp Temperatura Precipitaţii Vânt Presiune Umiditate
    00:00 -2°C° 0 mm 3 m/s 611 mmHg 94%
    01:00 -2°C° 0 mm 3 m/s 611 mmHg 94%
    02:00 -2°C° 0 mm 3 m/s 611 mmHg 94%
    03:00 -3°C° 0 mm 2 m/s 610 mmHg 93%
    04:00 -3°C° 0 mm 2 m/s 610 mmHg 93%
    05:00 -2°C° 0 mm 2 m/s 611 mmHg 89%
    06:00 -1°C° 0 mm 2 m/s 611 mmHg 85%
    07:00 +1°C° 0 mm 2 m/s 612 mmHg 81%
    08:00 +3°C° 0 mm 2 m/s 612 mmHg 76%
    09:00 +4°C° 0 mm 2 m/s 613 mmHg 71%
    10:00 +6°C° 0 mm 2 m/s 614 mmHg 66%
    11:00 +5°C° 0,6 mm 2 m/s 614 mmHg 72%
    12:00 +5°C° 0,6 mm 2 m/s 614 mmHg 78%
    13:00 +4°C° 0,6 mm 2 m/s 614 mmHg 84%
    14:00 +3°C° 2,3 mm 2 m/s 613 mmHg 88%
    15:00 +3°C° 2,3 mm 1 m/s 613 mmHg 92%
    16:00 +2°C° 2,3 mm 1 m/s 613 mmHg 96%
    17:00 +1°C° 1,9 mm 1 m/s 613 mmHg 97%
    18:00 0°C° 1,9 mm 1 m/s 613 mmHg 97%
    19:00 -2°C° 1,9 mm 2 m/s 613 mmHg 98%
    20:00 -1°C° 1,2 mm 1 m/s 613 mmHg 98%
    21:00 -1°C° 1,2 mm 1 m/s 614 mmHg 98%
    22:00 -2°C° 1,2 mm 1 m/s 614 mmHg 97%
    23:00 -2°C° 0,7 mm 1 m/s 614 mmHg 97%

    Poimâine, 2 Mai, Marţi

    Timp Temperatura Precipitaţii Vânt Presiune Umiditate
    00:00 -2°C° 0,7 mm 1 m/s 614 mmHg 97%
    01:00 -2°C° 0,7 mm 1 m/s 614 mmHg 97%
    02:00 -2°C° 0,5 mm 1 m/s 614 mmHg 97%
    03:00 -2°C° 0,5 mm 1 m/s 614 mmHg 97%
    04:00 -2°C° 0,5 mm 1 m/s 614 mmHg 97%
    05:00 -2°C° 0,2 mm 1 m/s 614 mmHg 96%
    06:00 -1°C° 0,2 mm 1 m/s 615 mmHg 96%
    07:00 -1°C° 0,2 mm 0 m/s 615 mmHg 96%
    08:00 +1°C° 0 mm 1 m/s 615 mmHg 96%
    09:00 +2°C° 0 mm 1 m/s 615 mmHg 95%
    10:00 +3°C° 0 mm 1 m/s 616 mmHg 95%
    11:00 +3°C° 0 mm 1 m/s 616 mmHg 95%
    12:00 +4°C° 0 mm 1 m/s 616 mmHg 94%
    13:00 +5°C° 0 mm 1 m/s 616 mmHg 93%
    14:00 +5°C° 0,1 mm 1 m/s 616 mmHg 93%
    15:00 +5°C° 0,1 mm 1 m/s 616 mmHg 93%
    16:00 +6°C° 0,1 mm 1 m/s 616 mmHg 92%
    17:00 +4°C° 0,1 mm 1 m/s 615 mmHg 94%
    18:00 +3°C° 0,1 mm 1 m/s 615 mmHg 95%
    19:00 +2°C° 0,1 mm 1 m/s 614 mmHg 96%
    20:00 +1°C° 0 mm 1 m/s 614 mmHg 96%
    21:00 0°C° 0 mm 1 m/s 614 mmHg 96%
    22:00 -3°C° 0 mm 2 m/s 614 mmHg 96%
    23:00 -3°C° 0 mm 2 m/s 614 mmHg 95%

    3 Mai, Miercuri

    Timp Temperatura Precipitaţii Vânt Presiune Umiditate
    00:00 -3°C° 0 mm 2 m/s 614 mmHg 95%
    01:00 -3°C° 0 mm 2 m/s 614 mmHg 95%
    02:00 -3°C° 0 mm 2 m/s 614 mmHg 95%
    03:00 -4°C° 0 mm 2 m/s 614 mmHg 95%
    04:00 -4°C° 0 mm 2 m/s 614 mmHg 95%
    05:00 -2°C° 0 mm 2 m/s 614 mmHg 94%
    06:00 -1°C° 0 mm 2 m/s 614 mmHg 93%
    07:00 +2°C° 0 mm 1 m/s 615 mmHg 92%
    08:00 +3°C° 0 mm 1 m/s 615 mmHg 90%
    09:00 +4°C° 0 mm 1 m/s 615 mmHg 87%
    10:00 +5°C° 0 mm 1 m/s 616 mmHg 85%
    11:00 +5°C° 0,4 mm 2 m/s 616 mmHg 86%
    12:00 +5°C° 0,4 mm 2 m/s 616 mmHg 86%
    13:00 +5°C° 0,4 mm 2 m/s 616 mmHg 86%
    14:00 +5°C° 1,1 mm 2 m/s 615 mmHg 87%
    15:00 +5°C° 1,1 mm 2 m/s 615 mmHg 87%
    16:00 +4°C° 1,1 mm 2 m/s 615 mmHg 87%
    17:00 +4°C° 0,6 mm 1 m/s 615 mmHg 90%
    18:00 +3°C° 0,6 mm 1 m/s 614 mmHg 93%
    19:00 +2°C° 0,6 mm 1 m/s 614 mmHg 97%
    20:00 +1°C° 0,2 mm 1 m/s 614 mmHg 97%
    21:00 -1°C° 0,2 mm 0 m/s 613 mmHg 97%
    22:00 -2°C° 0,2 mm 0 m/s 613 mmHg 97%
    23:00 -2°C° 0,1 mm 0 m/s 613 mmHg 96%

    4 Mai, Joi

    Timp Temperatura Precipitaţii Vânt Presiune Umiditate
    00:00 -2°C° 0,1 mm 0 m/s 613 mmHg 96%
    01:00 -2°C° 0,1 mm 0 m/s 613 mmHg 95%
    02:00 -2°C° 0,1 mm 0 m/s 613 mmHg 95%
    03:00 -3°C° 0,1 mm 0 m/s 612 mmHg 94%
    04:00 -3°C° 0,1 mm 0 m/s 612 mmHg 94%
    05:00 -1°C° 0,2 mm 0 m/s 613 mmHg 92%
    06:00 0°C° 0,2 mm 0 m/s 613 mmHg 90%
    07:00 +1°C° 0,2 mm 0 m/s 614 mmHg 88%
    08:00 +2°C° 0,2 mm 0 m/s 614 mmHg 85%
    09:00 +3°C° 0,2 mm 0 m/s 614 mmHg 82%
    10:00 +5°C° 0,2 mm 1 m/s 615 mmHg 79%
    11:00 +6°C° 0,6 mm 1 m/s 614 mmHg 80%
    12:00 +6°C° 0,6 mm 1 m/s 614 mmHg 80%
    13:00 +6°C° 0,6 mm 1 m/s 614 mmHg 80%
    14:00 +6°C° 1 mm 1 m/s 614 mmHg 82%
    15:00 +6°C° 1 mm 1 m/s 613 mmHg 83%
    16:00 +6°C° 1 mm 1 m/s 613 mmHg 85%
    17:00 +5°C° 0,9 mm 1 m/s 613 mmHg 88%
    18:00 +4°C° 0,9 mm 1 m/s 613 mmHg 92%
    19:00 +2°C° 0,9 mm 0 m/s 613 mmHg 95%
    20:00 +2°C° 0,7 mm 1 m/s 613 mmHg 96%
    21:00 +2°C° 0,7 mm 1 m/s 613 mmHg 96%
    22:00 +1°C° 0,7 mm 1 m/s 613 mmHg 97%
    23:00 +1°C° 0,2 mm 1 m/s 613 mmHg 97%

    5 Mai, Vineri

    Timp Temperatura Precipitaţii Vânt Presiune Umiditate
    00:00 0°C° 0,2 mm 1 m/s 613 mmHg 97%
    01:00 -1°C° 0,2 mm 1 m/s 613 mmHg 97%
    02:00 -1°C° 0,1 mm 1 m/s 613 mmHg 96%
    03:00 -1°C° 0,1 mm 1 m/s 613 mmHg 96%
    04:00 -2°C° 0,1 mm 1 m/s 613 mmHg 96%
    05:00 0°C° 0 mm 1 m/s 614 mmHg 94%
    06:00 +1°C° 0 mm 1 m/s 615 mmHg 91%
    07:00 +3°C° 0 mm 1 m/s 616 mmHg 89%
    08:00 +5°C° 0 mm 1 m/s 616 mmHg 83%
    09:00 +5°C° 0 mm 0 m/s 617 mmHg 77%
    10:00 +7°C° 0 mm 0 m/s 618 mmHg 72%
    11:00 +8°C° 0 mm 0 m/s 618 mmHg 69%
    12:00 +9°C° 0 mm 0 m/s 618 mmHg 66%
    13:00 +10°C° 0 mm 0 m/s 618 mmHg 63%
    14:00 +10°C° 0,1 mm 1 m/s 618 mmHg 63%
    15:00 +10°C° 0,1 mm 1 m/s 618 mmHg 64%
    16:00 +10°C° 0,1 mm 1 m/s 617 mmHg 65%
    17:00 +7°C° 0,1 mm 1 m/s 616 mmHg 73%
    18:00 +5°C° 0,1 mm 1 m/s 616 mmHg 82%
    19:00 +3°C° 0,1 mm 1 m/s 615 mmHg 90%
    20:00 +1°C° 0 mm 1 m/s 614 mmHg 92%
    21:00 -2°C° 0 mm 0 m/s 614 mmHg 93%
    22:00 -4°C° 0 mm 0 m/s 613 mmHg 94%
    23:00 -2°C° 0 mm 1 m/s 614 mmHg 93%
    Arată mai mult